FREGAT R/B, 54224

Orbit data source: Space-Track

FREGAT R/B, 54224 is space debris originally from a launch on Wed, 02 Nov 2022 UTC launched from the Plesetsk Missile And Space Complex (PKMTR). Debris objects in space refer to the collection of defunct objects orbiting the Earth. Examples of debris include non-operational satellites, rocket bodies, and fragments generated from explosions, collisions, or faulty payload assembly.

Loading next visibility...
Identifier
54224, 2022-145B
Orbit
Molniya
Country
Flag of CISCIS
Related business
Manufacturer
Lavochkin
Mission
Spacecraft
Bus & Motor
FREGAT, Unknown motor
Mass
1,000 kg wet, 1,000 kg dry
Launch date (UTC)
2022-11-02 (4 years ago)
Launch vehicle
Unknown
Launch site
Plesetsk Missile And Space Complex (PKMTR)
Object type
Payload
Rocket body
Debris
Shape & HBR
Cyl, 1.7 m
Radar Cross Section
8.354 m², Large (>1 m²)

Expand to show TLE details & history
Last TLE update: 6 days ago

TLE from 6 days ago
0 FREGAT R/B
1 54224U 22145B   26167.33271496 -.00000812  00000-0  00000-0 0  9990
2 54224  63.6201 280.3405 7048068 265.7044  18.2904  2.02073863 26711
Epoch: 2026-06-16T07:59Z
TLE epoch observation values (Epoch: 2026-06-16T07:59:06.572Z)
Latitude
-0.00001°
Longitude
-104.10116°
Altitude
7,688.229 km
Speed
6.45 km/s
True Right ascension
18h 41m 07s
True Declination
0° 00' 00"
Sunlit
Object was in daylight at epoch
Visualization orbit readout
Latitude
Unknown
Longitude
Unknown
Altitude
Unknown
Speed
Unknown
Apparent Right ascension
Unknown
Apparent Declination
Unknown
Sunlit
N/A
Visualization observer readout
Local Sidereal Time
21:33:40
Azimuth
Unknown
Elevation
Unknown
Doppler factor
Unknown
Orbital elements
Apogee altitude
38,674.638 km
Perigee altitude
1,422.907 km
Semi-major axis
26,426.909 km
Eccentricity
0.70481
Inclination
63.6201°
RAAN
280.3405°
Arg. of periapsis
265.7044°
True anomaly
94.62733°
Mean anomaly
18.2904°
Eccentric anomaly
48.56576°
Mean motion
0.50521 °/min
Orbital period
712.57 mins
BSTAR
0
Loading maneuver chart data...
Computing Atmospheric mass density...
Loading historical data...
Loading historical data...
Loading historical data...
Loading historical data...
Loading historical data...
Loading historical data...
Loading historical data...
Other satellites on launch #145 in the year 2022 (2022-11-02 UTC)

Documentation

Showing up to 5 results
|